Private Wetterstation Wechselburg
Wetterdaten: Donnerstag, 11.03.2021
Datum Zeit Temp. +2m Bodentemp. Temp.+5cm Temp. Wind Windchill X Diff Temp. Feuchte +2m Feuchte +5cm Luftdruck Regen Wind Richtung Richtung Sonnenschein Taupunkt Windchill Windben
11.03.2021 00:00 2,6 C 5,2 C 1,7 C 2,3 C 1,6 C 0,0 C 78 % 84 % 1016,6 hPa 0,0 l/m 0,0 km/h (0 Bft) O 90 0 min -0,8 C 1,6 C 0,0 km/h (0 Bft)
11.03.2021 00:05 2,7 C 5,2 C 1,7 C 2,3 C 1,5 C 0,0 C 78 % 84 % 1016,6 hPa 0,0 l/m 0,0 km/h (0 Bft) O 90 0 min -0,7 C 1,5 C 0,0 km/h (0 Bft)
11.03.2021 00:10 2,7 C 5,2 C 1,8 C 2,3 C 1,5 C 0,0 C 78 % 84 % 1016,3 hPa 0,0 l/m 0,0 km/h (0 Bft) O 90 0 min -0,7 C 1,5 C 0,0 km/h (0 Bft)
11.03.2021 00:15 2,7 C 5,2 C 1,8 C 2,3 C 1,6 C 0,0 C 78 % 84 % 1016,3 hPa 0,0 l/m 0,0 km/h (0 Bft) O 90 0 min -0,7 C 1,6 C 0,0 km/h (0 Bft)
11.03.2021 00:20 2,7 C 5,2 C 1,8 C 2,4 C 1,7 C 0,0 C 78 % 84 % 1016,3 hPa 0,0 l/m 0,0 km/h (0 Bft) O 90 0 min -0,7 C 1,7 C 0,0 km/h (0 Bft)
11.03.2021 00:25 2,6 C 5,2 C 1,6 C 2,3 C 1,6 C 0,0 C 78 % 83 % 1016,3 hPa 0,0 l/m 0,0 km/h (0 Bft) O 90 0 min -0,8 C 1,6 C 0,0 km/h (0 Bft)
11.03.2021 00:30 2,4 C 5,2 C 1,4 C 2,0 C 1,3 C 0,0 C 78 % 84 % 1015,9 hPa 0,0 l/m 0,0 km/h (0 Bft) O 90 0 min -1,0 C 1,3 C 0,0 km/h (0 Bft)
11.03.2021 00:35 2,3 C 5,2 C 1,2 C 1,9 C 1,2 C 0,0 C 78 % 84 % 1015,9 hPa 0,0 l/m 0,0 km/h (0 Bft) O 90 0 min -1,1 C 1,2 C 0,0 km/h (0 Bft)
11.03.2021 00:40 2,0 C 5,2 C 1,1 C 1,7 C 1,0 C 0,0 C 78 % 84 % 1015,9 hPa 0,0 l/m 0,0 km/h (0 Bft) O 90 0 min -1,4 C 1,0 C 0,0 km/h (0 Bft)
11.03.2021 00:45 2,0 C 5,2 C 1,1 C 1,7 C 1,0 C 0,0 C 78 % 85 % 1015,9 hPa 0,0 l/m 0,0 km/h (0 Bft) O 90 0 min -1,4 C 1,0 C 0,0 km/h (0 Bft)
11.03.2021 00:50 2,0 C 5,2 C 1,1 C 1,7 C 1,0 C 0,0 C 79 % 85 % 1015,4 hPa 0,0 l/m 0,0 km/h (0 Bft) O 90 0 min -1,2 C 1,0 C 0,0 km/h (0 Bft)
11.03.2021 00:55 1,9 C 5,2 C 1,0 C 1,6 C 0,9 C 0,0 C 79 % 85 % 1015,4 hPa 0,0 l/m 0,0 km/h (0 Bft) O 90 0 min -1,3 C 0,9 C 0,0 km/h (0 Bft)
11.03.2021 01:00 1,9 C 5,1 C 1,0 C 1,6 C 1,0 C 0,0 C 79 % 85 % 1015,4 hPa 0,0 l/m 0,0 km/h (0 Bft) O 90 0 min -1,3 C 1,0 C 0,0 km/h (0 Bft)
11.03.2021 01:05 1,9 C 5,1 C 1,1 C 1,6 C 1,1 C 0,0 C 79 % 85 % 1015,4 hPa 0,0 l/m 0,0 km/h (0 Bft) O 90 0 min -1,3 C 1,1 C 0,0 km/h (0 Bft)
11.03.2021 01:10 2,0 C 5,1 C 1,3 C 1,8 C 1,3 C 0,0 C 80 % 86 % 1015,6 hPa 0,0 l/m 0,0 km/h (0 Bft) O 90 0 min -1,1 C 1,3 C 0,0 km/h (0 Bft)
11.03.2021 01:15 2,1 C 5,1 C 1,5 C 1,9 C 1,5 C 0,0 C 80 % 86 % 1015,6 hPa 0,0 l/m 0,0 km/h (0 Bft) O 90 0 min -1,0 C 1,5 C 0,0 km/h (0 Bft)
11.03.2021 01:20 2,3 C 5,1 C 1,6 C 2,1 C 1,8 C 0,0 C 80 % 86 % 1015,6 hPa 0,0 l/m 0,0 km/h (0 Bft) O 90 0 min -0,8 C 1,8 C 0,0 km/h (0 Bft)
11.03.2021 01:25 2,4 C 5,1 C 1,8 C 2,2 C 1,9 C 0,0 C 80 % 85 % 1015,6 hPa 0,0 l/m 0,0 km/h (0 Bft) O 90 0 min -0,7 C 1,9 C 0,0 km/h (0 Bft)
11.03.2021 01:30 2,5 C 5,1 C 1,7 C 2,3 C 2,0 C 0,0 C 80 % 85 % 1015,2 hPa 0,0 l/m 0,0 km/h (0 Bft) O 90 0 min -0,6 C 2,0 C 0,0 km/h (0 Bft)
11.03.2021 01:35 2,7 C 5,1 C 1,9 C 2,5 C 2,1 C 0,0 C 80 % 85 % 1015,2 hPa 0,0 l/m 0,0 km/h (0 Bft) O 90 0 min -0,4 C 2,1 C 0,0 km/h (0 Bft)
11.03.2021 01:40 2,7 C 5,1 C 2,1 C 2,6 C 2,3 C 0,0 C 80 % 85 % 1015,2 hPa 0,0 l/m 0,0 km/h (0 Bft) O 90 0 min -0,4 C 2,3 C 0,0 km/h (0 Bft)
11.03.2021 01:45 2,8 C 5,1 C 2,3 C 2,7 C 2,5 C 0,0 C 80 % 84 % 1015,2 hPa 0,0 l/m 0,0 km/h (0 Bft) O 90 0 min -0,3 C 2,5 C 0,0 km/h (0 Bft)
11.03.2021 01:50 3,1 C 5,1 C 2,4 C 3,0 C 2,7 C 0,0 C 79 % 84 % 1014,9 hPa 0,0 l/m 0,0 km/h (0 Bft) O-NO 67 0 min -0,2 C 2,7 C 0,0 km/h (0 Bft)
11.03.2021 01:55 3,2 C 5,1 C 2,5 C 3,1 C 2,9 C 0,0 C 79 % 83 % 1014,9 hPa 0,0 l/m 0,0 km/h (0 Bft) O 90 0 min -0,1 C 2,9 C 0,0 km/h (0 Bft)
11.03.2021 02:00 3,3 C 5,1 C 2,6 C 3,2 C 3,0 C 0,0 C 79 % 83 % 1014,9 hPa 0,0 l/m 0,0 km/h (0 Bft) O 90 0 min 0,0 C 3,0 C 0,0 km/h (0 Bft)
11.03.2021 02:05 3,3 C 5,1 C 2,6 C 3,2 C 3,1 C 0,0 C 79 % 83 % 1014,9 hPa 0,0 l/m 0,0 km/h (0 Bft) O 90 0 min 0,0 C 3,1 C 0,0 km/h (0 Bft)
11.03.2021 02:10 3,4 C 5,1 C 2,7 C 3,4 C 3,3 C 0,0 C 79 % 83 % 1014,7 hPa 0,0 l/m 0,0 km/h (0 Bft) O 90 0 min 0,1 C 3,3 C 0,0 km/h (0 Bft)
11.03.2021 02:15 3,5 C 5,1 C 2,9 C 3,5 C 3,4 C 0,0 C 78 % 82 % 1014,7 hPa 0,0 l/m 0,0 km/h (0 Bft) O-NO 67 0 min 0,0 C 3,4 C 0,0 km/h (0 Bft)
11.03.2021 02:20 3,6 C 5,1 C 3,1 C 3,6 C 3,6 C 0,0 C 78 % 82 % 1014,7 hPa 0,0 l/m 0,0 km/h (0 Bft) O 90 0 min 0,1 C 3,6 C 0,0 km/h (0 Bft)
11.03.2021 02:25 3,7 C 5,1 C 3,1 C 3,7 C 3,7 C 0,0 C 78 % 82 % 1014,7 hPa 0,0 l/m 0,0 km/h (0 Bft) O 90 0 min 0,2 C 3,7 C 0,0 km/h (0 Bft)
11.03.2021 02:30 3,8 C 5,1 C 3,2 C 3,8 C 3,8 C 0,0 C 77 % 81 % 1013,8 hPa 0,0 l/m 0,0 km/h (0 Bft) O 90 0 min 0,1 C 3,8 C 0,0 km/h (0 Bft)
11.03.2021 02:35 3,9 C 5,1 C 3,2 C 3,9 C 3,8 C 0,0 C 77 % 81 % 1013,8 hPa 0,0 l/m 0,0 km/h (0 Bft) O-NO 67 0 min 0,2 C 3,8 C 0,0 km/h (0 Bft)
11.03.2021 02:40 4,0 C 5,1 C 3,2 C 3,9 C 3,8 C 0,0 C 76 % 80 % 1013,8 hPa 0,0 l/m 0,0 km/h (0 Bft) O 90 0 min 0,2 C 3,8 C 0,0 km/h (0 Bft)
11.03.2021 02:45 4,0 C 5,0 C 3,3 C 4,0 C 3,9 C 0,0 C 76 % 81 % 1013,8 hPa 0,0 l/m 0,0 km/h (0 Bft) O 90 0 min 0,2 C 3,9 C 0,0 km/h (0 Bft)
11.03.2021 02:50 4,1 C 5,0 C 3,4 C 4,1 C 4,0 C 0,0 C 76 % 80 % 1013,5 hPa 0,0 l/m 0,0 km/h (0 Bft) N-NO 22 0 min 0,3 C 4,0 C 0,0 km/h (0 Bft)
11.03.2021 02:55 4,3 C 5,0 C 3,5 C 4,2 C 4,0 C 0,0 C 76 % 80 % 1013,5 hPa 0,0 l/m 0,2 km/h (0 Bft) S 180 0 min 0,5 C 4,0 C 5,3 km/h (1 Bft)
11.03.2021 03:00 4,4 C 5,0 C 3,6 C 4,4 C 4,3 C 0,0 C 75 % 79 % 1013,5 hPa 0,0 l/m 0,2 km/h (0 Bft) SW 225 0 min 0,4 C 4,3 C 0,0 km/h (0 Bft)
11.03.2021 03:05 4,4 C 5,0 C 3,7 C 4,4 C 4,4 C 0,0 C 75 % 79 % 1013,5 hPa 0,0 l/m 0,3 km/h (0 Bft) S 180 0 min 0,4 C 4,4 C 2,7 km/h (1 Bft)
11.03.2021 03:10 4,6 C 5,0 C 3,8 C 4,6 C 4,5 C 0,0 C 75 % 79 % 1012,9 hPa 0,0 l/m 0,2 km/h (0 Bft) S-SW 202 0 min 0,6 C 4,5 C 1,9 km/h (1 Bft)
11.03.2021 03:15 4,7 C 5,0 C 3,8 C 4,7 C 4,6 C 0,0 C 75 % 79 % 1012,9 hPa 0,0 l/m 0,3 km/h (0 Bft) O-NO 67 0 min 0,7 C 4,6 C 0,0 km/h (0 Bft)
11.03.2021 03:20 4,7 C 5,0 C 3,9 C 4,8 C 4,8 C 0,1 C 74 % 79 % 1012,9 hPa 0,0 l/m 0,5 km/h (0 Bft) S 180 0 min 0,5 C 4,8 C 0,0 km/h (0 Bft)
11.03.2021 03:25 4,9 C 5,0 C 3,9 C 4,9 C 4,9 C 0,0 C 74 % 78 % 1012,9 hPa 0,0 l/m 0,6 km/h (0 Bft) O 90 0 min 0,7 C 4,9 C 0,0 km/h (0 Bft)
11.03.2021 03:30 4,9 C 5,0 C 4,1 C 5,0 C 5,0 C 0,1 C 73 % 78 % 1012,4 hPa 0,0 l/m 0,5 km/h (0 Bft) S 180 0 min 0,5 C 5,0 C 9,0 km/h (2 Bft)
11.03.2021 03:35 5,1 C 5,0 C 4,1 C 5,1 C 5,1 C 0,0 C 73 % 78 % 1012,4 hPa 0,0 l/m 0,5 km/h (0 Bft) SW 225 0 min 0,7 C 5,1 C 0,0 km/h (0 Bft)
11.03.2021 03:40 5,1 C 5,0 C 4,2 C 5,2 C 5,2 C 0,1 C 73 % 77 % 1012,4 hPa 0,0 l/m 0,5 km/h (0 Bft) O-NO 67 0 min 0,7 C 5,2 C 11,3 km/h (2 Bft)
11.03.2021 03:45 5,1 C 5,0 C 4,2 C 5,2 C 5,2 C 0,1 C 73 % 77 % 1012,4 hPa 0,0 l/m 0,2 km/h (0 Bft) NO 45 0 min 0,7 C 5,2 C 0,0 km/h (0 Bft)
11.03.2021 03:50 5,1 C 5,0 C 4,2 C 5,2 C 5,2 C 0,1 C 72 % 77 % 1011,6 hPa 0,0 l/m 0,0 km/h (0 Bft) N-NW 337 0 min 0,5 C 5,2 C 0,0 km/h (0 Bft)
11.03.2021 03:55 5,2 C 5,0 C 4,3 C 5,2 C 5,2 C 0,0 C 72 % 77 % 1011,6 hPa 0,0 l/m 0,3 km/h (0 Bft) O-NO 67 0 min 0,6 C 5,2 C 0,0 km/h (0 Bft)
11.03.2021 04:00 5,2 C 5,0 C 4,3 C 5,2 C 5,2 C 0,0 C 72 % 77 % 1011,6 hPa 0,0 l/m 0,8 km/h (0 Bft) O-NO 67 0 min 0,6 C 5,2 C 0,0 km/h (0 Bft)
11.03.2021 04:05 5,2 C 5,0 C 4,3 C 5,3 C 5,3 C 0,1 C 72 % 77 % 1011,6 hPa 0,0 l/m 0,8 km/h (0 Bft) O-SO 112 0 min 0,6 C 5,3 C 4,8 km/h (1 Bft)
11.03.2021 04:10 5,3 C 5,0 C 4,4 C 5,4 C 5,4 C 0,1 C 71 % 77 % 1011,8 hPa 0,0 l/m 0,5 km/h (0 Bft) SO 135 0 min 0,5 C 5,4 C 0,0 km/h (0 Bft)
11.03.2021 04:15 5,3 C 5,0 C 4,5 C 5,4 C 5,4 C 0,1 C 71 % 76 % 1011,8 hPa 0,0 l/m 0,3 km/h (0 Bft) W-NW 292 0 min 0,5 C 5,4 C 0,0 km/h (0 Bft)
11.03.2021 04:20 5,5 C 5,0 C 4,6 C 5,5 C 5,5 C 0,0 C 71 % 76 % 1011,8 hPa 0,0 l/m 0,6 km/h (0 Bft) NO 45 0 min 0,7 C 5,5 C 0,0 km/h (0 Bft)
11.03.2021 04:25 5,5 C 5,0 C 4,6 C 5,6 C 5,6 C 0,1 C 71 % 76 % 1011,8 hPa 0,0 l/m 0,5 km/h (0 Bft) SO 135 0 min 0,7 C 5,6 C 5,3 km/h (1 Bft)
11.03.2021 04:30 5,6 C 5,0 C 4,7 C 5,6 C 5,6 C 0,0 C 71 % 76 % 1011,1 hPa 0,0 l/m 0,5 km/h (0 Bft) S 180 0 min 0,8 C 5,6 C 0,0 km/h (0 Bft)
11.03.2021 04:35 5,6 C 5,0 C 4,6 C 5,7 C 5,7 C 0,1 C 71 % 76 % 1011,1 hPa 0,0 l/m 0,8 km/h (0 Bft) N 360 0 min 0,8 C 5,7 C 0,0 km/h (0 Bft)
11.03.2021 04:40 5,6 C 5,0 C 4,7 C 5,6 C 5,6 C 0,0 C 71 % 76 % 1011,1 hPa 0,0 l/m 0,3 km/h (0 Bft) O 90 0 min 0,8 C 5,6 C 0,0 km/h (0 Bft)
11.03.2021 04:45 5,7 C 5,0 C 4,7 C 5,6 C 5,5 C 0,0 C 71 % 76 % 1011,1 hPa 0,0 l/m 0,2 km/h (0 Bft) O-SO 112 0 min 0,9 C 5,5 C 2,1 km/h (1 Bft)
11.03.2021 04:50 5,7 C 5,0 C 4,7 C 5,6 C 5,3 C 0,0 C 71 % 77 % 1010,5 hPa 0,0 l/m 1,1 km/h (1 Bft) O-SO 112 0 min 0,9 C 5,3 C 19,6 km/h (3 Bft)
11.03.2021 04:55 5,8 C 5,0 C 4,7 C 5,6 C 5,1 C 0,0 C 72 % 78 % 1010,5 hPa 0,0 l/m 1,9 km/h (1 Bft) S-SW 202 0 min 1,2 C 5,1 C 0,0 km/h (0 Bft)
11.03.2021 05:00 5,8 C 5,0 C 4,7 C 5,5 C 4,9 C 0,0 C 72 % 79 % 1010,5 hPa 0,0 l/m 2,9 km/h (1 Bft) S 180 0 min 1,2 C 4,9 C 9,2 km/h (2 Bft)
11.03.2021 05:05 5,9 C 5,0 C 4,7 C 5,5 C 4,7 C 0,0 C 73 % 80 % 1010,5 hPa 0,0 l/m 3,4 km/h (1 Bft) S 180 0 min 1,4 C 4,7 C 0,0 km/h (0 Bft)
11.03.2021 05:10 5,7 C 5,2 C 4,7 C 5,6 C 5,3 C 0,0 C 73 % 80 % 1010,2 hPa 0,0 l/m 2,6 km/h (1 Bft) NO 45 0 min 1,2 C 5,3 C 0,0 km/h (0 Bft)
11.03.2021 05:15 5,7 C 5,1 C 4,8 C 5,6 C 5,4 C 0,0 C 73 % 80 % 1010,2 hPa 0,0 l/m 1,3 km/h (1 Bft) NO 45 0 min 1,2 C 5,4 C 1,9 km/h (1 Bft)
11.03.2021 05:20 5,7 C 5,1 C 4,7 C 5,6 C 5,3 C 0,0 C 74 % 80 % 1010,2 hPa 0,0 l/m 1,6 km/h (1 Bft) SW 225 0 min 1,4 C 5,3 C 0,0 km/h (0 Bft)
11.03.2021 05:25 5,7 C 5,2 C 4,7 C 5,5 C 5,0 C 0,0 C 74 % 81 % 1010,2 hPa 0,0 l/m 1,8 km/h (1 Bft) O-NO 67 0 min 1,4 C 5,0 C 1,8 km/h (1 Bft)
11.03.2021 05:30 5,6 C 5,2 C 4,7 C 5,3 C 4,8 C 0,0 C 74 % 81 % 1009,6 hPa 0,0 l/m 1,0 km/h (0 Bft) O-SO 112 0 min 1,3 C 4,8 C 0,0 km/h (0 Bft)
11.03.2021 05:35 5,6 C 5,2 C 4,7 C 5,4 C 5,0 C 0,0 C 75 % 81 % 1009,6 hPa 0,0 l/m 0,8 km/h (0 Bft) NO 45 0 min 1,5 C 5,0 C 2,7 km/h (1 Bft)
11.03.2021 05:40 5,6 C 5,2 C 4,7 C 5,5 C 5,2 C 0,0 C 75 % 81 % 1009,6 hPa 0,0 l/m 1,6 km/h (1 Bft) SO 135 0 min 1,5 C 5,2 C 0,0 km/h (0 Bft)
11.03.2021 05:45 5,6 C 5,2 C 4,7 C 5,5 C 5,4 C 0,0 C 75 % 81 % 1009,6 hPa 0,0 l/m 1,8 km/h (1 Bft) SW 225 0 min 1,5 C 5,4 C 6,4 km/h (2 Bft)
11.03.2021 05:50 5,6 C 5,1 C 4,7 C 5,6 C 5,5 C 0,0 C 75 % 81 % 1008,9 hPa 0,0 l/m 1,8 km/h (1 Bft) S 180 0 min 1,5 C 5,5 C 1,8 km/h (1 Bft)
11.03.2021 05:55 5,6 C 5,2 C 4,7 C 5,5 C 5,4 C 0,0 C 75 % 81 % 1008,9 hPa 0,0 l/m 1,6 km/h (1 Bft) S 180 0 min 1,5 C 5,4 C 0,0 km/h (0 Bft)
11.03.2021 06:00 5,7 C 5,2 C 4,7 C 5,6 C 5,4 C 0,0 C 75 % 81 % 1008,9 hPa 0,0 l/m 0,6 km/h (0 Bft) O-NO 67 0 min 1,6 C 5,4 C 3,1 km/h (1 Bft)
11.03.2021 06:05 5,6 C 5,2 C 4,8 C 5,6 C 5,5 C 0,0 C 75 % 80 % 1008,9 hPa 0,0 l/m 0,5 km/h (0 Bft) O-SO 112 0 min 1,5 C 5,5 C 0,0 km/h (0 Bft)
11.03.2021 06:10 5,6 C 5,1 C 4,9 C 5,6 C 5,5 C 0,0 C 75 % 80 % 1008,5 hPa 0,0 l/m 0,6 km/h (0 Bft) N-NO 22 0 min 1,5 C 5,5 C 0,0 km/h (0 Bft)
11.03.2021 06:15 5,7 C 5,1 C 4,9 C 5,7 C 5,6 C 0,0 C 75 % 80 % 1008,5 hPa 0,0 l/m 1,3 km/h (1 Bft) S-SO 157 0 min 1,6 C 5,6 C 4,2 km/h (1 Bft)
11.03.2021 06:20 5,7 C 5,1 C 4,8 C 5,6 C 5,3 C 0,0 C 75 % 81 % 1008,5 hPa 0,0 l/m 1,6 km/h (1 Bft) SO 135 0 min 1,6 C 5,3 C 0,0 km/h (0 Bft)
11.03.2021 06:25 5,7 C 5,2 C 4,7 C 5,5 C 5,0 C 0,0 C 75 % 81 % 1008,5 hPa 0,0 l/m 1,6 km/h (1 Bft) N-NO 22 0 min 1,6 C 5,0 C 0,0 km/h (0 Bft)
11.03.2021 06:30 5,7 C 5,2 C 4,9 C 5,4 C 4,8 C 0,0 C 75 % 81 % 1008,4 hPa 0,0 l/m 1,3 km/h (1 Bft) O-NO 67 0 min 1,6 C 4,8 C 0,0 km/h (0 Bft)
11.03.2021 06:35 5,8 C 5,2 C 4,9 C 5,5 C 5,0 C 0,0 C 75 % 81 % 1008,4 hPa 0,0 l/m 1,4 km/h (1 Bft) S 180 0 min 1,7 C 5,0 C 2,4 km/h (1 Bft)
11.03.2021 06:40 5,8 C 5,2 C 4,9 C 5,7 C 5,4 C 0,0 C 75 % 80 % 1008,4 hPa 0,0 l/m 1,3 km/h (1 Bft) W 270 0 min 1,7 C 5,4 C 0,0 km/h (0 Bft)
11.03.2021 06:45 5,9 C 5,3 C 4,8 C 5,6 C 5,1 C 0,0 C 75 % 81 % 1008,4 hPa 0,0 l/m 1,6 km/h (1 Bft) SW 225 0 min 1,8 C 5,1 C 5,0 km/h (1 Bft)
11.03.2021 06:50 5,9 C 5,3 C 4,4 C 5,4 C 4,4 C 0,0 C 75 % 85 % 1007,9 hPa 0,0 l/m 1,9 km/h (1 Bft) NW 315 0 min 1,8 C 4,4 C 1,9 km/h (1 Bft)
11.03.2021 06:55 5,6 C 5,3 C 4,3 C 5,1 C 4,2 C 0,0 C 76 % 86 % 1007,9 hPa 0,0 l/m 2,6 km/h (1 Bft) S-SW 202 0 min 1,7 C 4,2 C 9,3 km/h (2 Bft)
11.03.2021 07:00 5,6 C 5,3 C 4,3 C 5,1 C 4,2 C 0,0 C 76 % 87 % 1007,9 hPa 0,0 l/m 2,6 km/h (1 Bft) SW 225 0 min 1,7 C 4,2 C 0,0 km/h (0 Bft)
11.03.2021 07:05 5,7 C 5,3 C 4,3 C 5,3 C 4,5 C 0,0 C 76 % 88 % 1007,9 hPa 0,0 l/m 2,3 km/h (1 Bft) S-SO 157 0 min 1,8 C 4,5 C 2,7 km/h (1 Bft)
11.03.2021 07:10 5,8 C 5,3 C 4,5 C 5,5 C 5,0 C 0,0 C 76 % 87 % 1007,6 hPa 0,0 l/m 2,6 km/h (1 Bft) S-SO 157 0 min 1,9 C 5,0 C 1,9 km/h (1 Bft)
11.03.2021 07:15 6,0 C 5,3 C 4,6 C 5,7 C 5,1 C 0,0 C 76 % 87 % 1007,6 hPa 0,0 l/m 3,4 km/h (1 Bft) S 180 0 min 2,1 C 5,1 C 9,7 km/h (2 Bft)
11.03.2021 07:20 6,1 C 5,3 C 4,8 C 5,8 C 5,1 C 0,0 C 75 % 87 % 1007,6 hPa 0,0 l/m 3,9 km/h (1 Bft) S 180 0 min 2,0 C 5,1 C 4,3 km/h (1 Bft)
11.03.2021 07:25 6,2 C 5,2 C 4,9 C 5,9 C 5,3 C 0,0 C 75 % 87 % 1007,6 hPa 0,0 l/m 3,5 km/h (1 Bft) O-SO 112 0 min 2,1 C 5,3 C 6,3 km/h (2 Bft)
11.03.2021 07:30 6,3 C 5,2 C 5,0 C 6,1 C 5,8 C 0,0 C 74 % 87 % 1007,2 hPa 0,0 l/m 3,1 km/h (1 Bft) SO 135 0 min 2,0 C 5,8 C 6,0 km/h (2 Bft)
11.03.2021 07:35 6,3 C 5,2 C 5,0 C 6,1 C 5,8 C 0,0 C 74 % 86 % 1007,2 hPa 0,0 l/m 3,7 km/h (1 Bft) SO 135 0 min 2,0 C 5,8 C 8,9 km/h (2 Bft)
11.03.2021 07:40 6,4 C 5,2 C 5,2 C 6,2 C 5,8 C 0,0 C 73 % 86 % 1007,2 hPa 0,0 l/m 4,2 km/h (1 Bft) O-SO 112 0 min 1,9 C 5,8 C 5,5 km/h (1 Bft)
11.03.2021 07:45 6,4 C 5,2 C 5,3 C 6,2 C 5,9 C 0,0 C 73 % 85 % 1007,2 hPa 0,0 l/m 4,2 km/h (1 Bft) SO 135 0 min 1,9 C 5,9 C 9,8 km/h (2 Bft)
11.03.2021 07:50 6,5 C 5,2 C 5,5 C 6,4 C 6,1 C 0,0 C 73 % 86 % 1006,9 hPa 0,0 l/m 4,2 km/h (1 Bft) S-SO 157 0 min 2,0 C 6,1 C 2,3 km/h (1 Bft)
11.03.2021 07:55 6,7 C 5,2 C 5,5 C 6,6 C 6,4 C 0,0 C 73 % 85 % 1006,9 hPa 0,0 l/m 3,7 km/h (1 Bft) SO 135 0 min 2,2 C 6,4 C 11,7 km/h (2 Bft)
11.03.2021 08:00 6,7 C 5,2 C 5,8 C 6,7 C 6,6 C 0,0 C 72 % 84 % 1006,9 hPa 0,0 l/m 3,9 km/h (1 Bft) SW 225 0 min 2,0 C 6,6 C 13,4 km/h (3 Bft)
11.03.2021 08:05 6,9 C 5,2 C 5,9 C 6,6 C 6,1 C 0,0 C 72 % 84 % 1006,9 hPa 0,0 l/m 5,3 km/h (1 Bft) SO 135 0 min 2,2 C 5,2 C 5,5 km/h (1 Bft)
11.03.2021 08:10 6,8 C 5,2 C 5,9 C 6,7 C 6,4 C 0,0 C 72 % 84 % 1006,9 hPa 0,0 l/m 4,7 km/h (1 Bft) O 90 0 min 2,1 C 5,8 C 8,4 km/h (2 Bft)
11.03.2021 08:15 6,9 C 5,2 C 6,0 C 6,8 C 6,7 C 0,0 C 72 % 84 % 1006,9 hPa 0,0 l/m 4,0 km/h (1 Bft) S 180 0 min 2,2 C 6,7 C 18,0 km/h (3 Bft)
11.03.2021 08:20 6,9 C 5,2 C 6,1 C 6,8 C 6,7 C 0,0 C 72 % 83 % 1006,9 hPa 0,0 l/m 4,3 km/h (1 Bft) W-SW 247 0 min 2,2 C 6,7 C 3,4 km/h (1 Bft)
11.03.2021 08:25 6,9 C 5,2 C 6,2 C 6,9 C 6,8 C 0,0 C 72 % 82 % 1006,9 hPa 0,0 l/m 4,5 km/h (1 Bft) S-SO 157 0 min 2,2 C 6,8 C 6,8 km/h (2 Bft)
11.03.2021 08:30 6,9 C 5,2 C 6,2 C 7,1 C 7,1 C 0,2 C 72 % 82 % 1006,9 hPa 0,0 l/m 3,9 km/h (1 Bft) SO 135 0 min 2,2 C 7,1 C 4,5 km/h (1 Bft)
11.03.2021 08:35 7,0 C 5,2 C 6,3 C 7,0 C 7,0 C 0,0 C 72 % 83 % 1006,9 hPa 0,0 l/m 4,3 km/h (1 Bft) W-SW 247 0 min 2,3 C 7,0 C 8,5 km/h (2 Bft)
11.03.2021 08:40 7,1 C 5,2 C 6,3 C 7,1 C 7,0 C 0,0 C 72 % 83 % 1006,9 hPa 0,0 l/m 4,7 km/h (1 Bft) SW 225 0 min 2,4 C 6,5 C 24,3 km/h (4 Bft)
11.03.2021 08:45 7,1 C 5,2 C 6,3 C 7,0 C 6,9 C 0,0 C 72 % 83 % 1006,9 hPa 0,0 l/m 5,0 km/h (1 Bft) SO 135 0 min 2,4 C 6,2 C 11,4 km/h (2 Bft)
11.03.2021 08:50 7,1 C 5,2 C 6,4 C 6,9 C 6,4 C 0,0 C 72 % 83 % 1006,9 hPa 0,0 l/m 6,6 km/h (2 Bft) S-SO 157 0 min 2,4 C 5,2 C 16,9 km/h (3 Bft)
11.03.2021 08:55 7,1 C 5,2 C 6,5 C 7,0 C 6,8 C 0,0 C 73 % 82 % 1006,9 hPa 0,0 l/m 5,6 km/h (1 Bft) S-SO 157 0 min 2,6 C 5,9 C 12,6 km/h (3 Bft)
11.03.2021 09:00 7,0 C 5,3 C 6,7 C 7,2 C 7,2 C 0,2 C 73 % 82 % 1006,9 hPa 0,0 l/m 4,8 km/h (1 Bft) S 180 0 min 2,5 C 6,7 C 13,8 km/h (3 Bft)
11.03.2021 09:05 7,1 C 5,3 C 6,7 C 7,1 C 7,1 C 0,0 C 73 % 82 % 1006,9 hPa 0,0 l/m 5,5 km/h (1 Bft) S-SO 157 0 min 2,6 C 6,3 C 28,3 km/h (4 Bft)
11.03.2021 09:10 7,1 C 5,3 C 6,7 C 7,1 C 7,1 C 0,0 C 73 % 82 % 1007,1 hPa 0,0 l/m 5,8 km/h (2 Bft) W 270 0 min 2,6 C 6,2 C 8,5 km/h (2 Bft)
11.03.2021 09:15 7,1 C 5,3 C 6,7 C 7,1 C 7,1 C 0,0 C 73 % 82 % 1007,1 hPa 0,0 l/m 6,0 km/h (2 Bft) SO 135 0 min 2,6 C 6,1 C 16,1 km/h (3 Bft)
11.03.2021 09:20 7,1 C 5,3 C 6,7 C 7,1 C 7,1 C 0,0 C 73 % 82 % 1007,1 hPa 0,0 l/m 5,3 km/h (1 Bft) SO 135 0 min 2,6 C 6,4 C 5,6 km/h (1 Bft)
11.03.2021 09:25 7,1 C 5,3 C 6,7 C 7,1 C 7,0 C 0,0 C 73 % 82 % 1007,1 hPa 0,0 l/m 5,6 km/h (1 Bft) S-SO 157 0 min 2,6 C 6,1 C 5,5 km/h (1 Bft)
11.03.2021 09:30 7,2 C 5,3 C 6,8 C 7,5 C 7,5 C 0,3 C 74 % 83 % 1006,9 hPa 0,0 l/m 4,5 km/h (1 Bft) S-SW 202 0 min 2,9 C 7,5 C 5,6 km/h (1 Bft)
11.03.2021 09:35 7,3 C 5,3 C 6,9 C 7,5 C 7,5 C 0,2 C 74 % 83 % 1006,9 hPa 0,0 l/m 5,0 km/h (1 Bft) S-SW 202 0 min 3,0 C 6,9 C 8,2 km/h (2 Bft)
11.03.2021 09:40 7,3 C 5,3 C 7,1 C 7,9 C 7,9 C 0,6 C 74 % 83 % 1006,9 hPa 0,0 l/m 4,3 km/h (1 Bft) S-SW 202 0 min 3,0 C 7,9 C 10,5 km/h (2 Bft)
11.03.2021 09:45 7,3 C 5,3 C 7,1 C 8,3 C 8,3 C 1,0 C 74 % 83 % 1006,9 hPa 0,0 l/m 3,7 km/h (1 Bft) NO 45 0 min 3,0 C 8,3 C 7,1 km/h (2 Bft)
11.03.2021 09:50 7,4 C 5,3 C 7,3 C 8,1 C 8,1 C 0,7 C 74 % 83 % 1006,5 hPa 0,0 l/m 4,5 km/h (1 Bft) S-SO 157 0 min 3,1 C 8,1 C 14,5 km/h (3 Bft)
11.03.2021 09:55 7,5 C 5,3 C 7,2 C 7,8 C 7,8 C 0,3 C 74 % 82 % 1006,5 hPa 0,0 l/m 5,3 km/h (1 Bft) S-SW 202 0 min 3,2 C 7,2 C 4,8 km/h (1 Bft)
11.03.2021 10:00 7,6 C 5,3 C 7,3 C 7,5 C 7,4 C 0,0 C 74 % 80 % 1006,5 hPa 0,0 l/m 6,8 km/h (2 Bft) O-SO 112 0 min 3,3 C 6,3 C 5,3 km/h (1 Bft)
11.03.2021 10:05 7,6 C 5,3 C 7,4 C 7,5 C 7,4 C 0,0 C 74 % 80 % 1006,5 hPa 0,0 l/m 6,6 km/h (2 Bft) SO 135 0 min 3,3 C 6,3 C 8,2 km/h (2 Bft)
11.03.2021 10:10 7,6 C 5,4 C 7,4 C 7,7 C 7,7 C 0,1 C 74 % 80 % 1007,4 hPa 0,0 l/m 5,1 km/h (1 Bft) S-SW 202 0 min 3,3 C 7,1 C 4,7 km/h (1 Bft)
11.03.2021 10:15 7,6 C 5,4 C 7,5 C 7,7 C 7,7 C 0,1 C 74 % 79 % 1007,4 hPa 0,0 l/m 5,8 km/h (2 Bft) SO 135 0 min 3,3 C 6,9 C 18,5 km/h (3 Bft)
11.03.2021 10:20 7,8 C 5,4 C 7,7 C 7,8 C 7,8 C 0,0 C 74 % 78 % 1007,4 hPa 0,0 l/m 6,8 km/h (2 Bft) S-SO 157 0 min 3,5 C 6,7 C 13,2 km/h (3 Bft)
11.03.2021 10:25 7,8 C 5,4 C 7,8 C 8,0 C 7,6 C 0,2 C 74 % 78 % 1007,4 hPa 0,0 l/m 7,7 km/h (2 Bft) S 180 0 min 3,5 C 6,3 C 15,9 km/h (3 Bft)
11.03.2021 10:30 7,9 C 5,4 C 7,9 C 8,1 C 7,8 C 0,2 C 74 % 77 % 1006,3 hPa 0,0 l/m 7,9 km/h (2 Bft) O-NO 67 0 min 3,6 C 6,4 C 11,7 km/h (2 Bft)
11.03.2021 10:35 8,0 C 5,4 C 8,1 C 8,2 C 8,2 C 0,2 C 74 % 77 % 1006,3 hPa 0,0 l/m 7,4 km/h (2 Bft) SW 225 0 min 3,7 C 7,0 C 16,7 km/h (3 Bft)
11.03.2021 10:40 8,0 C 5,4 C 8,3 C 8,5 C 8,5 C 0,5 C 74 % 77 % 1006,3 hPa 0,0 l/m 6,9 km/h (2 Bft) W-SW 247 0 min 3,7 C 7,5 C 15,4 km/h (3 Bft)
11.03.2021 10:45 8,1 C 5,4 C 8,3 C 8,9 C 8,9 C 0,8 C 74 % 76 % 1006,3 hPa 0,0 l/m 6,3 km/h (2 Bft) S-SO 157 0 min 3,8 C 8,1 C 8,4 km/h (2 Bft)
11.03.2021 10:50 8,2 C 5,4 C 8,4 C 9,1 C 9,1 C 0,9 C 73 % 76 % 1006,4 hPa 0,0 l/m 5,8 km/h (2 Bft) S 180 0 min 3,7 C 8,5 C 6,1 km/h (2 Bft)
11.03.2021 10:55 8,3 C 5,4 C 8,4 C 8,8 C 8,8 C 0,5 C 73 % 75 % 1006,4 hPa 0,0 l/m 6,6 km/h (2 Bft) N-NO 22 0 min 3,8 C 7,9 C 3,2 km/h (1 Bft)
11.03.2021 11:00 8,3 C 5,5 C 8,3 C 8,7 C 8,7 C 0,4 C 73 % 75 % 1006,4 hPa 0,0 l/m 6,9 km/h (2 Bft) S 180 0 min 3,8 C 7,7 C 10,8 km/h (2 Bft)
11.03.2021 11:05 8,3 C 5,5 C 8,3 C 8,9 C 8,9 C 0,6 C 73 % 75 % 1006,4 hPa 0,0 l/m 5,3 km/h (1 Bft) W-SW 247 0 min 3,8 C 8,4 C 4,7 km/h (1 Bft)
11.03.2021 11:10 8,3 C 5,5 C 8,2 C 9,2 C 9,2 C 0,9 C 73 % 75 % 1006,1 hPa 0,0 l/m 4,3 km/h (1 Bft) SO 135 0 min 3,8 C 9,2 C 11,4 km/h (2 Bft)
11.03.2021 11:15 8,3 C 5,5 C 8,2 C 9,2 C 9,2 C 0,9 C 73 % 75 % 1006,1 hPa 0,0 l/m 4,2 km/h (1 Bft) SO 135 0 min 3,8 C 9,2 C 21,2 km/h (4 Bft)
11.03.2021 11:20 8,4 C 5,5 C 8,2 C 8,5 C 8,5 C 0,1 C 73 % 75 % 1006,1 hPa 0,0 l/m 5,8 km/h (2 Bft) N 360 0 min 3,8 C 7,8 C 15,1 km/h (3 Bft)
11.03.2021 11:25 8,4 C 5,5 C 8,2 C 8,4 C 8,4 C 0,0 C 73 % 75 % 1006,1 hPa 0,0 l/m 6,0 km/h (2 Bft) N-NW 337 0 min 3,8 C 7,6 C 13,0 km/h (3 Bft)
11.03.2021 11:30 8,4 C 5,5 C 8,3 C 8,8 C 8,8 C 0,4 C 73 % 75 % 1005,8 hPa 0,0 l/m 5,3 km/h (1 Bft) NO 45 0 min 3,8 C 8,3 C 15,8 km/h (3 Bft)
11.03.2021 11:35 8,5 C 5,5 C 8,3 C 8,9 C 8,9 C 0,4 C 73 % 75 % 1005,8 hPa 0,0 l/m 4,8 km/h (1 Bft) O 90 0 min 3,9 C 8,6 C 7,2 km/h (2 Bft)
11.03.2021 11:40 8,5 C 5,5 C 8,3 C 8,5 C 8,5 C 0,0 C 73 % 76 % 1005,8 hPa 0,0 l/m 5,3 km/h (1 Bft) S-SO 157 0 min 3,9 C 8,0 C 16,3 km/h (3 Bft)
11.03.2021 11:45 8,5 C 5,5 C 8,3 C 8,7 C 8,7 C 0,2 C 74 % 76 % 1005,8 hPa 0,0 l/m 4,5 km/h (1 Bft) S-SO 157 0 min 4,1 C 8,7 C 6,4 km/h (2 Bft)
11.03.2021 11:50 8,5 C 5,6 C 8,3 C 9,2 C 9,2 C 0,7 C 74 % 76 % 1005,4 hPa 0,0 l/m 3,7 km/h (1 Bft) O-SO 112 0 min 4,1 C 9,2 C 11,1 km/h (2 Bft)
11.03.2021 11:55 8,7 C 5,6 C 8,4 C 9,0 C 9,0 C 0,3 C 74 % 77 % 1005,4 hPa 0,0 l/m 3,4 km/h (1 Bft) S 180 0 min 4,3 C 9,0 C 2,4 km/h (1 Bft)
11.03.2021 12:00 8,7 C 5,6 C 8,7 C 9,2 C 9,2 C 0,5 C 74 % 76 % 1005,4 hPa 0,0 l/m 3,9 km/h (1 Bft) SO 135 0 min 4,3 C 9,2 C 10,0 km/h (2 Bft)
11.03.2021 12:05 8,8 C 5,6 C 8,8 C 9,6 C 9,6 C 0,8 C 74 % 76 % 1005,4 hPa 0,0 l/m 4,0 km/h (1 Bft) S-SW 202 0 min 4,4 C 9,6 C 4,5 km/h (1 Bft)
11.03.2021 12:10 8,8 C 5,6 C 8,8 C 9,6 C 9,6 C 0,8 C 74 % 76 % 1005,6 hPa 0,0 l/m 4,0 km/h (1 Bft) S-SW 202 0 min 4,4 C 9,6 C 4,5 km/h (1 Bft)
11.03.2021 12:15 8,8 C 5,6 C 8,8 C 9,6 C 9,6 C 0,8 C 74 % 76 % 1005,6 hPa 0,0 l/m 4,0 km/h (1 Bft) S-SW 202 0 min 4,4 C 9,6 C 4,5 km/h (1 Bft)
11.03.2021 12:20 9,1 C 5,6 C 9,0 C 9,8 C 9,8 C 0,7 C 73 % 75 % 1005,6 hPa 0,0 l/m 5,1 km/h (1 Bft) S 180 0 min 4,5 C 9,5 C 4,3 km/h (1 Bft)
11.03.2021 12:25 9,2 C 5,6 C 9,1 C 9,5 C 9,5 C 0,3 C 73 % 75 % 1005,6 hPa 0,0 l/m 6,3 km/h (2 Bft) NW 315 0 min 4,6 C 8,8 C 3,1 km/h (1 Bft)
11.03.2021 12:30 9,2 C 5,7 C 9,3 C 9,8 C 9,8 C 0,6 C 73 % 74 % 1005,6 hPa 0,0 l/m 5,8 km/h (2 Bft) NO 45 0 min 4,6 C 9,3 C 8,7 km/h (2 Bft)
11.03.2021 12:35 9,3 C 5,7 C 9,4 C 10,4 C 10,4 C 1,1 C 73 % 74 % 1005,6 hPa 0,0 l/m 4,5 km/h (1 Bft) W-SW 247 0 min 4,7 C 10,4 C 18,0 km/h (3 Bft)
11.03.2021 12:40 9,5 C 5,7 C 9,5 C 10,4 C 10,4 C 0,9 C 73 % 74 % 1005,6 hPa 0,0 l/m 5,6 km/h (1 Bft) SO 135 0 min 4,9 C 10,4 C 8,4 km/h (2 Bft)
11.03.2021 12:45 9,5 C 5,7 C 9,5 C 10,2 C 10,2 C 0,7 C 73 % 74 % 1005,6 hPa 0,0 l/m 7,2 km/h (2 Bft) O-SO 112 0 min 4,9 C 10,2 C 9,8 km/h (2 Bft)
11.03.2021 12:50 9,7 C 5,7 C 9,7 C 11,4 C 11,4 C 1,7 C 73 % 74 % 1004,6 hPa 0,0 l/m 4,8 km/h (1 Bft) N-NW 337 0 min 5,1 C 11,4 C 5,1 km/h (1 Bft)
11.03.2021 12:55 9,7 C 5,7 C 9,7 C 11,5 C 11,5 C 1,8 C 73 % 74 % 1004,6 hPa 0,0 l/m 4,8 km/h (1 Bft) S-SO 157 0 min 5,1 C 11,5 C 9,8 km/h (2 Bft)
11.03.2021 13:00 9,9 C 5,7 C 9,7 C 10,9 C 10,9 C 1,0 C 73 % 74 % 1004,6 hPa 0,0 l/m 6,4 km/h (2 Bft) W-SW 247 0 min 5,3 C 10,9 C 10,9 km/h (2 Bft)
11.03.2021 13:05 10,0 C 5,8 C 9,9 C 12,2 C 12,2 C 2,2 C 74 % 74 % 1004,6 hPa 0,0 l/m 5,6 km/h (1 Bft) O-SO 112 0 min 5,6 C 12,2 C 4,8 km/h (1 Bft)
11.03.2021 13:10 10,1 C 5,8 C 9,9 C 12,3 C 12,3 C 2,2 C 73 % 74 % 1003,6 hPa 0,0 l/m 6,1 km/h (2 Bft) S 180 0 min 5,5 C 12,3 C 13,8 km/h (3 Bft)
11.03.2021 13:15 10,1 C 5,8 C 9,8 C 11,9 C 11,9 C 1,8 C 73 % 74 % 1003,6 hPa 0,0 l/m 6,0 km/h (2 Bft) SO 135 0 min 5,5 C 11,9 C 5,0 km/h (1 Bft)
11.03.2021 13:20 10,0 C 5,8 C 9,8 C 11,2 C 11,2 C 1,2 C 73 % 74 % 1003,6 hPa 0,0 l/m 6,0 km/h (2 Bft) SO 135 0 min 5,4 C 11,2 C 6,6 km/h (2 Bft)
11.03.2021 13:25 9,9 C 5,8 C 9,9 C 10,9 C 10,9 C 1,0 C 73 % 74 % 1003,6 hPa 0,0 l/m 6,1 km/h (2 Bft) W 270 0 min 5,3 C 10,9 C 8,4 km/h (2 Bft)
11.03.2021 13:30 10,0 C 5,8 C 9,9 C 10,7 C 10,7 C 0,7 C 74 % 74 % 1003,0 hPa 0,0 l/m 7,1 km/h (2 Bft) S 180 0 min 5,6 C 10,7 C 16,3 km/h (3 Bft)
11.03.2021 13:35 10,0 C 5,8 C 10,1 C 11,0 C 11,0 C 1,0 C 74 % 74 % 1003,0 hPa 0,0 l/m 6,8 km/h (2 Bft) S-SO 157 0 min 5,6 C 11,0 C 5,5 km/h (1 Bft)
11.03.2021 13:40 10,2 C 5,9 C 10,4 C 12,4 C 12,4 C 2,2 C 74 % 75 % 1003,0 hPa 0,0 l/m 6,9 km/h (2 Bft) N-NW 337 0 min 5,8 C 12,4 C 24,0 km/h (4 Bft)
11.03.2021 13:45 10,4 C 5,9 C 10,3 C 12,8 C 12,8 C 2,4 C 74 % 74 % 1003,0 hPa 0,0 l/m 7,9 km/h (2 Bft) SO 135 0 min 6,0 C 12,8 C 12,2 km/h (2 Bft)
11.03.2021 13:50 10,4 C 5,9 C 10,3 C 12,4 C 12,4 C 2,0 C 73 % 74 % 1003,0 hPa 0,0 l/m 6,6 km/h (2 Bft) SO 135 0 min 5,8 C 12,4 C 7,4 km/h (2 Bft)
11.03.2021 13:55 10,4 C 5,9 C 10,4 C 12,3 C 12,3 C 1,9 C 74 % 75 % 1003,0 hPa 0,0 l/m 6,8 km/h (2 Bft) N 360 0 min 6,0 C 12,3 C 14,5 km/h (3 Bft)
11.03.2021 14:00 10,4 C 5,9 C 10,3 C 12,3 C 12,1 C 1,9 C 74 % 75 % 1003,0 hPa 0,0 l/m 7,7 km/h (2 Bft) W-SW 247 0 min 6,0 C 12,1 C 10,3 km/h (2 Bft)
11.03.2021 14:05 10,5 C 6,0 C 10,5 C 12,1 C 11,9 C 1,6 C 74 % 75 % 1003,0 hPa 0,0 l/m 7,9 km/h (2 Bft) SO 135 0 min 6,1 C 11,9 C 21,7 km/h (4 Bft)
11.03.2021 14:10 10,7 C 6,0 C 10,5 C 12,0 C 11,7 C 1,3 C 74 % 75 % 1002,4 hPa 0,0 l/m 8,4 km/h (2 Bft) S 180 0 min 6,3 C 11,7 C 17,5 km/h (3 Bft)
11.03.2021 14:15 10,8 C 6,0 C 10,7 C 12,0 C 11,8 C 1,2 C 74 % 75 % 1002,4 hPa 0,0 l/m 8,7 km/h (2 Bft) N-NW 337 0 min 6,4 C 11,8 C 14,5 km/h (3 Bft)
11.03.2021 14:20 10,8 C 6,0 C 10,9 C 12,0 C 12,0 C 1,2 C 74 % 74 % 1002,4 hPa 0,0 l/m 6,9 km/h (2 Bft) S 180 0 min 6,4 C 12,0 C 17,1 km/h (3 Bft)
11.03.2021 14:25 10,8 C 6,0 C 10,8 C 11,9 C 11,9 C 1,1 C 74 % 74 % 1002,4 hPa 0,0 l/m 6,4 km/h (2 Bft) S 180 0 min 6,4 C 11,9 C 8,4 km/h (2 Bft)
11.03.2021 14:30 10,8 C 6,0 C 10,8 C 11,4 C 11,4 C 0,6 C 74 % 75 % 1002,4 hPa 0,0 l/m 6,8 km/h (2 Bft) S 180 0 min 6,4 C 11,4 C 4,8 km/h (1 Bft)
11.03.2021 14:35 10,9 C 6,1 C 11,1 C 11,8 C 11,8 C 0,9 C 74 % 75 % 1002,4 hPa 0,0 l/m 7,1 km/h (2 Bft) NO 45 0 min 6,5 C 11,8 C 13,8 km/h (3 Bft)
11.03.2021 14:40 11,1 C 6,1 C 10,9 C 12,1 C 12,1 C 1,0 C 74 % 75 % 1002,4 hPa 0,0 l/m 5,8 km/h (2 Bft) S-SO 157 0 min 6,6 C 12,1 C 2,9 km/h (1 Bft)
11.03.2021 14:45 11,0 C 6,1 C 10,9 C 12,1 C 12,1 C 1,1 C 74 % 75 % 1002,4 hPa 0,0 l/m 5,1 km/h (1 Bft) N-NO 22 0 min 6,5 C 12,1 C 11,9 km/h (2 Bft)
11.03.2021 14:50 10,9 C 6,1 C 10,8 C 12,0 C 12,0 C 1,1 C 75 % 75 % 1002,7 hPa 0,0 l/m 4,3 km/h (1 Bft) W 270 0 min 6,6 C 12,0 C 10,3 km/h (2 Bft)
11.03.2021 14:55 11,0 C 6,1 C 10,8 C 11,9 C 11,9 C 0,9 C 75 % 75 % 1002,7 hPa 0,0 l/m 4,8 km/h (1 Bft) O 90 0 min 6,7 C 11,9 C 7,7 km/h (2 Bft)
11.03.2021 15:00 11,1 C 6,2 C 11,0 C 11,9 C 11,9 C 0,8 C 75 % 75 % 1002,7 hPa 0,0 l/m 5,3 km/h (1 Bft) S-SO 157 0 min 6,8 C 11,9 C 8,9 km/h (2 Bft)
11.03.2021 15:05 11,1 C 6,2 C 11,0 C 12,1 C 12,1 C 1,0 C 75 % 76 % 1002,7 hPa 0,0 l/m 4,7 km/h (1 Bft) W-SW 247 0 min 6,8 C 12,1 C 11,3 km/h (2 Bft)
11.03.2021 15:10 11,1 C 6,2 C 11,0 C 12,1 C 12,1 C 1,0 C 75 % 76 % 1002,2 hPa 0,0 l/m 3,9 km/h (1 Bft) S-SO 157 0 min 6,8 C 12,1 C 7,6 km/h (2 Bft)
11.03.2021 15:15 11,2 C 6,2 C 11,0 C 12,0 C 12,0 C 0,8 C 76 % 76 % 1002,2 hPa 0,0 l/m 3,7 km/h (1 Bft) W-SW 247 0 min 7,1 C 12,0 C 8,7 km/h (2 Bft)
11.03.2021 15:20 11,2 C 6,2 C 10,9 C 11,8 C 11,8 C 0,6 C 75 % 77 % 1002,2 hPa 0,0 l/m 5,1 km/h (1 Bft) S-SO 157 0 min 6,9 C 11,8 C 10,8 km/h (2 Bft)
11.03.2021 15:25 11,2 C 6,2 C 10,9 C 11,6 C 11,6 C 0,4 C 75 % 77 % 1002,2 hPa 0,0 l/m 6,3 km/h (2 Bft) O-SO 112 0 min 6,9 C 11,6 C 3,1 km/h (1 Bft)
11.03.2021 15:30 11,3 C 6,3 C 11,0 C 11,9 C 11,9 C 0,6 C 75 % 77 % 1001,6 hPa 0,0 l/m 4,8 km/h (1 Bft) W-SW 247 0 min 7,0 C 11,9 C 14,8 km/h (3 Bft)
11.03.2021 15:35 11,5 C 6,3 C 11,1 C 12,1 C 12,1 C 0,6 C 75 % 77 % 1001,6 hPa 0,0 l/m 4,3 km/h (1 Bft) S-SO 157 0 min 7,2 C 12,1 C 12,6 km/h (3 Bft)
11.03.2021 15:40 11,5 C 6,3 C 11,5 C 12,6 C 12,6 C 1,1 C 75 % 76 % 1001,6 hPa 0,0 l/m 5,3 km/h (1 Bft) SO 135 0 min 7,2 C 12,6 C 5,5 km/h (1 Bft)
11.03.2021 15:45 11,7 C 6,3 C 11,5 C 13,6 C 13,6 C 1,9 C 76 % 76 % 1001,6 hPa 0,0 l/m 5,5 km/h (1 Bft) S-SW 202 0 min 7,6 C 13,6 C 5,5 km/h (1 Bft)
11.03.2021 15:50 11,9 C 6,3 C 11,7 C 13,9 C 13,9 C 2,0 C 75 % 76 % 1001,4 hPa 0,0 l/m 5,0 km/h (1 Bft) S-SW 202 0 min 7,6 C 13,9 C 8,9 km/h (2 Bft)
11.03.2021 15:55 11,9 C 6,4 C 11,8 C 13,7 C 13,7 C 1,8 C 75 % 76 % 1001,4 hPa 0,0 l/m 6,0 km/h (2 Bft) W-SW 247 0 min 7,6 C 13,7 C 7,1 km/h (2 Bft)
11.03.2021 16:00 12,2 C 6,4 C 12,0 C 14,2 C 14,2 C 2,0 C 75 % 76 % 1001,4 hPa 0,0 l/m 6,4 km/h (2 Bft) NO 45 0 min 7,9 C 14,2 C 5,3 km/h (1 Bft)
11.03.2021 16:05 12,3 C 6,4 C 12,1 C 14,1 C 14,1 C 1,8 C 75 % 75 % 1001,4 hPa 0,0 l/m 7,6 km/h (2 Bft) S 180 0 min 8,0 C 14,1 C 10,9 km/h (2 Bft)
11.03.2021 16:10 12,5 C 6,4 C 12,3 C 14,1 C 14,1 C 1,6 C 74 % 75 % 1001,1 hPa 0,0 l/m 8,9 km/h (2 Bft) S 180 0 min 8,0 C 14,1 C 13,2 km/h (3 Bft)
11.03.2021 16:15 12,6 C 6,4 C 12,2 C 14,0 C 13,7 C 1,4 C 73 % 74 % 1001,1 hPa 0,0 l/m 10,3 km/h (2 Bft) S-SW 202 0 min 7,9 C 13,7 C 23,2 km/h (4 Bft)
11.03.2021 16:20 12,7 C 6,5 C 12,2 C 13,8 C 13,4 C 1,1 C 72 % 74 % 1001,1 hPa 0,0 l/m 12,4 km/h (3 Bft) S 180 0 min 7,8 C 13,4 C 30,4 km/h (5 Bft)
11.03.2021 16:25 12,8 C 6,5 C 12,3 C 13,6 C 13,3 C 0,8 C 71 % 73 % 1001,1 hPa 0,0 l/m 13,5 km/h (3 Bft) W-SW 247 0 min 7,7 C 13,3 C 10,0 km/h (2 Bft)
11.03.2021 16:30 12,9 C 6,5 C 12,2 C 13,3 C 13,3 C 0,4 C 71 % 73 % 1001,1 hPa 0,0 l/m 13,4 km/h (3 Bft) SW 225 0 min 7,8 C 13,3 C 17,1 km/h (3 Bft)
11.03.2021 16:35 12,8 C 6,5 C 12,3 C 13,9 C 14,0 C 1,1 C 71 % 72 % 1001,1 hPa 0,0 l/m 9,8 km/h (2 Bft) W-SW 247 0 min 7,7 C 14,0 C 22,4 km/h (4 Bft)
11.03.2021 16:40 12,9 C 6,5 C 12,3 C 14,1 C 13,9 C 1,2 C 70 % 72 % 1001,1 hPa 0,0 l/m 10,8 km/h (2 Bft) SW 225 0 min 7,6 C 13,9 C 13,7 km/h (3 Bft)
11.03.2021 16:45 12,9 C 6,5 C 12,3 C 13,9 C 13,6 C 1,0 C 70 % 72 % 1001,1 hPa 0,0 l/m 11,1 km/h (2 Bft) SO 135 0 min 7,6 C 13,6 C 7,2 km/h (2 Bft)
11.03.2021 16:50 12,8 C 6,6 C 12,1 C 13,6 C 13,2 C 0,8 C 69 % 71 % 1001,1 hPa 0,0 l/m 10,3 km/h (2 Bft) S-SW 202 0 min 7,3 C 13,2 C 14,8 km/h (3 Bft)
11.03.2021 16:55 12,7 C 6,6 C 11,8 C 13,0 C 12,5 C 0,3 C 69 % 71 % 1001,1 hPa 0,0 l/m 10,3 km/h (2 Bft) S 180 0 min 7,2 C 12,5 C 9,5 km/h (2 Bft)
11.03.2021 17:00 12,6 C 6,6 C 11,8 C 12,8 C 12,6 C 0,2 C 69 % 71 % 1001,1 hPa 0,0 l/m 8,7 km/h (2 Bft) W-SW 247 0 min 7,1 C 12,6 C 20,3 km/h (4 Bft)
11.03.2021 17:05 12,8 C 6,6 C 11,8 C 13,0 C 12,9 C 0,2 C 68 % 71 % 1001,1 hPa 0,0 l/m 9,5 km/h (2 Bft) S-SW 202 0 min 7,0 C 12,9 C 20,8 km/h (4 Bft)
11.03.2021 17:10 12,7 C 6,6 C 11,7 C 12,9 C 12,4 C 0,2 C 67 % 70 % 1000,9 hPa 0,0 l/m 10,9 km/h (2 Bft) S 180 0 min 6,7 C 12,4 C 16,3 km/h (3 Bft)
11.03.2021 17:15 12,7 C 6,6 C 11,6 C 12,6 C 12,4 C 0,0 C 67 % 71 % 1000,9 hPa 0,0 l/m 8,7 km/h (2 Bft) S-SO 157 0 min 6,7 C 12,4 C 9,2 km/h (2 Bft)
11.03.2021 17:20 12,3 C 6,6 C 11,4 C 12,4 C 12,4 C 0,1 C 69 % 72 % 1000,9 hPa 0,0 l/m 5,6 km/h (1 Bft) S 180 0 min 6,8 C 12,4 C 16,1 km/h (3 Bft)
11.03.2021 17:25 12,2 C 6,7 C 11,3 C 12,1 C 12,0 C 0,0 C 69 % 72 % 1000,9 hPa 0,0 l/m 5,5 km/h (1 Bft) SO 135 0 min 6,7 C 12,0 C 3,4 km/h (1 Bft)
11.03.2021 17:30 11,9 C 6,8 C 11,1 C 11,7 C 11,3 C 0,0 C 71 % 75 % 1001,4 hPa 0,0 l/m 6,4 km/h (2 Bft) S-SW 202 0 min 6,8 C 11,3 C 14,3 km/h (3 Bft)
11.03.2021 17:35 11,9 C 6,8 C 11,0 C 11,8 C 11,7 C 0,0 C 72 % 76 % 1001,4 hPa 0,0 l/m 5,1 km/h (1 Bft) SO 135 0 min 7,0 C 11,7 C 9,7 km/h (2 Bft)
11.03.2021 17:40 11,3 C 6,9 C 10,4 C 11,1 C 9,8 C 0,0 C 75 % 79 % 1001,4 hPa 0,0 l/m 8,0 km/h (2 Bft) S 180 0 min 7,0 C 8,8 C 13,4 km/h (3 Bft)
11.03.2021 17:45 10,8 C 6,8 C 9,8 C 10,2 C 7,8 C 0,0 C 74 % 78 % 1001,4 hPa 0,0 l/m 13,4 km/h (3 Bft) SW 225 0 min 6,4 C 5,4 C 28,2 km/h (4 Bft)
11.03.2021 17:50 10,0 C 6,8 C 9,2 C 9,3 C 6,5 C 0,0 C 74 % 79 % 1001,8 hPa 0,0 l/m 17,5 km/h (3 Bft) S 180 0 min 5,6 C 3,3 C 31,5 km/h (5 Bft)
11.03.2021 17:55 9,6 C 6,9 C 9,0 C 8,7 C 5,9 C 0,0 C 75 % 80 % 1001,8 hPa 0,0 l/m 17,2 km/h (3 Bft) S-SW 202 0 min 5,4 C 2,6 C 14,5 km/h (3 Bft)
11.03.2021 18:00 9,2 C 7,1 C 8,3 C 8,2 C 5,2 C 0,0 C 78 % 84 % 1001,8 hPa 0,0 l/m 15,8 km/h (3 Bft) S-SW 202 0 min 5,6 C 1,9 C 32,3 km/h (5 Bft)
11.03.2021 18:05 8,9 C 7,1 C 8,0 C 8,0 C 5,3 C 0,0 C 79 % 86 % 1001,8 hPa 0,0 l/m 13,5 km/h (3 Bft) SW 225 0 min 5,5 C 2,4 C 23,3 km/h (4 Bft)
11.03.2021 18:10 8,7 C 7,1 C 7,7 C 7,6 C 5,3 C 0,0 C 80 % 87 % 1001,7 hPa 0,7 l/m 11,6 km/h (2 Bft) SW 225 0 min 5,4 C 2,7 C 11,1 km/h (2 Bft)
11.03.2021 18:15 8,6 C 7,1 C 7,6 C 7,8 C 5,9 C 0,0 C 81 % 88 % 1001,7 hPa 0,0 l/m 8,0 km/h (2 Bft) SW 225 0 min 5,5 C 4,2 C 14,6 km/h (3 Bft)
11.03.2021 18:20 8,4 C 7,1 C 7,5 C 8,0 C 7,3 C 0,0 C 81 % 88 % 1001,7 hPa 0,0 l/m 2,6 km/h (1 Bft) SW 225 0 min 5,3 C 7,3 C 0,0 km/h (0 Bft)
11.03.2021 18:25 8,5 C 7,1 C 7,5 C 8,1 C 7,4 C 0,0 C 81 % 88 % 1001,7 hPa 0,0 l/m 1,8 km/h (1 Bft) S 180 0 min 5,4 C 7,4 C 5,1 km/h (1 Bft)
11.03.2021 18:30 8,3 C 7,0 C 7,4 C 8,0 C 7,3 C 0,0 C 81 % 88 % 1001,9 hPa 0,0 l/m 2,6 km/h (1 Bft) S 180 0 min 5,2 C 7,3 C 9,2 km/h (2 Bft)
11.03.2021 18:35 8,3 C 7,1 C 7,3 C 8,0 C 7,3 C 0,0 C 81 % 88 % 1001,9 hPa 0,0 l/m 2,9 km/h (1 Bft) SO 135 0 min 5,2 C 7,3 C 1,6 km/h (1 Bft)
11.03.2021 18:40 8,1 C 7,1 C 7,2 C 7,8 C 7,3 C 0,0 C 81 % 88 % 1001,9 hPa 0,0 l/m 2,3 km/h (1 Bft) S-SW 202 0 min 5,0 C 7,3 C 2,4 km/h (1 Bft)
11.03.2021 18:45 8,1 C 7,0 C 7,1 C 7,8 C 7,3 C 0,0 C 81 % 88 % 1001,9 hPa 0,0 l/m 1,3 km/h (1 Bft) W 270 0 min 5,0 C 7,3 C 0,0 km/h (0 Bft)
11.03.2021 18:50 8,0 C 7,1 C 7,1 C 7,7 C 7,1 C 0,0 C 80 % 89 % 1002,2 hPa 0,0 l/m 1,1 km/h (1 Bft) SW 225 0 min 4,8 C 7,1 C 6,1 km/h (2 Bft)
11.03.2021 18:55 8,0 C 7,0 C 7,1 C 7,7 C 7,2 C 0,0 C 80 % 89 % 1002,2 hPa 0,0 l/m 1,6 km/h (1 Bft) SW 225 0 min 4,8 C 7,2 C 3,5 km/h (1 Bft)
11.03.2021 19:00 8,0 C 7,1 C 7,1 C 7,8 C 7,4 C 0,0 C 80 % 89 % 1002,2 hPa 0,0 l/m 1,8 km/h (1 Bft) SW 225 0 min 4,8 C 7,4 C 0,0 km/h (0 Bft)
11.03.2021 19:05 8,0 C 7,0 C 7,1 C 7,8 C 7,4 C 0,0 C 80 % 89 % 1002,2 hPa 0,0 l/m 0,5 km/h (0 Bft) O 90 0 min 4,8 C 7,4 C 0,0 km/h (0 Bft)
11.03.2021 19:10 8,1 C 7,0 C 7,1 C 7,9 C 7,5 C 0,0 C 80 % 88 % 1002,2 hPa 0,0 l/m 2,4 km/h (1 Bft) SW 225 0 min 4,9 C 7,5 C 11,6 km/h (2 Bft)
11.03.2021 19:15 8,2 C 7,0 C 7,0 C 8,0 C 7,6 C 0,0 C 79 % 88 % 1002,2 hPa 0,0 l/m 3,1 km/h (1 Bft) SW 225 0 min 4,8 C 7,6 C 4,2 km/h (1 Bft)
11.03.2021 19:20 8,3 C 7,0 C 6,9 C 8,0 C 7,5 C 0,0 C 79 % 88 % 1002,2 hPa 0,0 l/m 2,7 km/h (1 Bft) S 180 0 min 4,9 C 7,5 C 7,4 km/h (2 Bft)
11.03.2021 19:25 8,2 C 7,0 C 6,7 C 7,9 C 7,4 C 0,0 C 78 % 89 % 1002,2 hPa 0,0 l/m 2,4 km/h (1 Bft) S 180 0 min 4,6 C 7,4 C 4,5 km/h (1 Bft)
11.03.2021 19:30 8,3 C 7,0 C 6,7 C 7,9 C 7,1 C 0,0 C 77 % 88 % 1002,7 hPa 0,0 l/m 1,9 km/h (1 Bft) S 180 0 min 4,5 C 7,1 C 9,0 km/h (2 Bft)
11.03.2021 19:35 8,2 C 7,0 C 6,7 C 7,8 C 7,1 C 0,0 C 77 % 88 % 1002,7 hPa 0,0 l/m 1,1 km/h (1 Bft) O-SO 112 0 min 4,4 C 7,1 C 0,0 km/h (0 Bft)
11.03.2021 19:40 8,2 C 7,0 C 6,8 C 7,8 C 7,1 C 0,0 C 77 % 88 % 1002,7 hPa 0,0 l/m 1,0 km/h (0 Bft) S-SW 202 0 min 4,4 C 7,1 C 6,8 km/h (2 Bft)
11.03.2021 19:45 8,2 C 7,0 C 6,7 C 7,8 C 7,1 C 0,0 C 77 % 88 % 1002,7 hPa 0,0 l/m 1,4 km/h (1 Bft) S 180 0 min 4,4 C 7,1 C 10,0 km/h (2 Bft)
11.03.2021 19:50 8,3 C 7,0 C 6,7 C 7,9 C 7,1 C 0,0 C 76 % 88 % 1002,9 hPa 0,0 l/m 2,9 km/h (1 Bft) SW 225 0 min 4,3 C 7,1 C 7,7 km/h (2 Bft)
11.03.2021 19:55 8,3 C 7,0 C 6,7 C 7,9 C 7,1 C 0,0 C 76 % 88 % 1002,9 hPa 0,0 l/m 3,9 km/h (1 Bft) S 180 0 min 4,3 C 7,1 C 4,7 km/h (1 Bft)
11.03.2021 20:00 8,3 C 7,0 C 6,8 C 8,0 C 7,5 C 0,0 C 75 % 88 % 1002,9 hPa 0,0 l/m 3,2 km/h (1 Bft) SO 135 0 min 4,1 C 7,5 C 3,5 km/h (1 Bft)
11.03.2021 20:05 8,3 C 7,0 C 6,9 C 8,1 C 7,7 C 0,0 C 75 % 87 % 1002,9 hPa 0,0 l/m 2,1 km/h (1 Bft) W-NW 292 0 min 4,1 C 7,7 C 1,6 km/h (1 Bft)
11.03.2021 20:10 8,4 C 6,9 C 6,9 C 8,2 C 7,7 C 0,0 C 75 % 87 % 1003,2 hPa 0,0 l/m 1,6 km/h (1 Bft) S-SO 157 0 min 4,2 C 7,7 C 3,1 km/h (1 Bft)
11.03.2021 20:15 8,4 C 7,0 C 6,8 C 8,1 C 7,6 C 0,0 C 75 % 87 % 1003,2 hPa 0,0 l/m 1,3 km/h (1 Bft) O-SO 112 0 min 4,2 C 7,6 C 0,0 km/h (0 Bft)
11.03.2021 20:20 8,3 C 7,0 C 6,9 C 8,0 C 7,5 C 0,0 C 75 % 87 % 1003,2 hPa 0,0 l/m 1,6 km/h (1 Bft) S 180 0 min 4,1 C 7,5 C 3,4 km/h (1 Bft)
11.03.2021 20:25 8,3 C 7,0 C 6,8 C 8,0 C 7,5 C 0,0 C 75 % 87 % 1003,2 hPa 0,0 l/m 1,8 km/h (1 Bft) S-SO 157 0 min 4,1 C 7,5 C 3,2 km/h (1 Bft)
11.03.2021 20:30 8,3 C 7,0 C 6,7 C 8,1 C 7,6 C 0,0 C 75 % 87 % 1003,3 hPa 0,0 l/m 2,3 km/h (1 Bft) S-SO 157 0 min 4,1 C 7,6 C 2,9 km/h (1 Bft)
11.03.2021 20:35 8,3 C 7,0 C 6,7 C 8,1 C 7,6 C 0,0 C 75 % 88 % 1003,3 hPa 0,0 l/m 2,7 km/h (1 Bft) O-SO 112 0 min 4,1 C 7,6 C 1,6 km/h (1 Bft)
11.03.2021 20:40 8,3 C 7,0 C 6,8 C 8,1 C 7,6 C 0,0 C 75 % 88 % 1003,3 hPa 0,0 l/m 1,8 km/h (1 Bft) SO 135 0 min 4,1 C 7,6 C 2,4 km/h (1 Bft)
11.03.2021 20:45 8,3 C 7,0 C 6,9 C 8,1 C 7,6 C 0,0 C 75 % 88 % 1003,3 hPa 0,0 l/m 1,0 km/h (0 Bft) S 180 0 min 4,1 C 7,6 C 0,0 km/h (0 Bft)
11.03.2021 20:50 8,1 C 7,0 C 6,9 C 7,9 C 7,6 C 0,0 C 75 % 87 % 1003,2 hPa 0,0 l/m 0,5 km/h (0 Bft) S-SO 157 0 min 3,9 C 7,6 C 2,7 km/h (1 Bft)
11.03.2021 20:55 8,3 C 7,0 C 6,9 C 8,0 C 7,5 C 0,0 C 76 % 88 % 1003,2 hPa 0,0 l/m 0,8 km/h (0 Bft) O-SO 112 0 min 4,3 C 7,5 C 1,6 km/h (1 Bft)
11.03.2021 21:00 8,1 C 7,0 C 6,8 C 7,9 C 7,4 C 0,0 C 76 % 88 % 1003,2 hPa 0,0 l/m 1,1 km/h (1 Bft) S 180 0 min 4,1 C 7,4 C 0,0 km/h (0 Bft)
11.03.2021 21:05 8,1 C 7,0 C 6,8 C 7,8 C 7,3 C 0,0 C 76 % 88 % 1003,2 hPa 0,0 l/m 1,0 km/h (0 Bft) S-SO 157 0 min 4,1 C 7,3 C 7,9 km/h (2 Bft)
11.03.2021 21:10 8,1 C 7,0 C 6,7 C 7,8 C 7,2 C 0,0 C 76 % 88 % 1003,3 hPa 0,0 l/m 2,1 km/h (1 Bft) N-NW 337 0 min 4,1 C 7,2 C 9,3 km/h (2 Bft)
11.03.2021 21:15 8,0 C 7,0 C 6,7 C 7,8 C 7,3 C 0,0 C 76 % 88 % 1003,3 hPa 0,0 l/m 3,5 km/h (1 Bft) O 90 0 min 4,0 C 7,3 C 5,5 km/h (1 Bft)
11.03.2021 21:20 8,1 C 7,0 C 6,7 C 7,8 C 7,3 C 0,0 C 77 % 88 % 1003,3 hPa 0,0 l/m 3,5 km/h (1 Bft) S-SO 157 0 min 4,3 C 7,3 C 3,1 km/h (1 Bft)
11.03.2021 21:25 8,0 C 7,0 C 6,7 C 7,7 C 7,2 C 0,0 C 76 % 88 % 1003,3 hPa 0,0 l/m 2,1 km/h (1 Bft) SW 225 0 min 4,0 C 7,2 C 5,1 km/h (1 Bft)
11.03.2021 21:30 7,9 C 7,0 C 6,7 C 7,7 C 7,3 C 0,0 C 76 % 88 % 1003,3 hPa 0,0 l/m 2,1 km/h (1 Bft) SW 225 0 min 3,9 C 7,3 C 6,6 km/h (2 Bft)
11.03.2021 21:35 7,9 C 7,0 C 6,7 C 7,7 C 7,3 C 0,0 C 77 % 88 % 1003,3 hPa 0,0 l/m 2,4 km/h (1 Bft) S 180 0 min 4,1 C 7,3 C 9,3 km/h (2 Bft)
11.03.2021 21:40 7,9 C 7,0 C 6,7 C 7,7 C 7,4 C 0,0 C 77 % 88 % 1003,3 hPa 0,0 l/m 2,6 km/h (1 Bft) W-SW 247 0 min 4,1 C 7,4 C 2,7 km/h (1 Bft)
11.03.2021 21:45 7,9 C 7,0 C 6,7 C 7,8 C 7,5 C 0,0 C 77 % 88 % 1003,3 hPa 0,0 l/m 2,6 km/h (1 Bft) NO 45 0 min 4,1 C 7,5 C 4,3 km/h (1 Bft)
11.03.2021 21:50 7,9 C 7,0 C 6,8 C 7,8 C 7,6 C 0,0 C 77 % 88 % 1003,5 hPa 0,0 l/m 2,3 km/h (1 Bft) W-SW 247 0 min 4,1 C 7,6 C 8,4 km/h (2 Bft)
11.03.2021 21:55 7,9 C 7,0 C 6,9 C 7,8 C 7,7 C 0,0 C 77 % 88 % 1003,5 hPa 0,0 l/m 3,4 km/h (1 Bft) S-SO 157 0 min 4,1 C 7,7 C 4,0 km/h (1 Bft)
11.03.2021 22:00 8,0 C 6,9 C 6,9 C 7,8 C 7,4 C 0,0 C 77 % 88 % 1003,5 hPa 0,0 l/m 4,5 km/h (1 Bft) S-SO 157 0 min 4,2 C 7,4 C 4,0 km/h (1 Bft)
11.03.2021 22:05 8,0 C 6,9 C 6,9 C 7,9 C 7,8 C 0,0 C 77 % 88 % 1003,5 hPa 0,0 l/m 3,5 km/h (1 Bft) S-SO 157 0 min 4,2 C 7,8 C 2,9 km/h (1 Bft)
11.03.2021 22:10 8,0 C 6,9 C 6,9 C 7,9 C 7,8 C 0,0 C 77 % 87 % 1003,4 hPa 0,0 l/m 2,7 km/h (1 Bft) W-SW 247 0 min 4,2 C 7,8 C 4,0 km/h (1 Bft)
11.03.2021 22:15 8,0 C 6,9 C 7,0 C 8,0 C 7,9 C 0,0 C 77 % 88 % 1003,4 hPa 0,0 l/m 3,2 km/h (1 Bft) S-SO 157 0 min 4,2 C 7,9 C 6,9 km/h (2 Bft)
11.03.2021 22:20 8,0 C 6,9 C 7,0 C 8,0 C 7,9 C 0,0 C 77 % 88 % 1003,4 hPa 0,0 l/m 3,2 km/h (1 Bft) SO 135 0 min 4,2 C 7,9 C 4,7 km/h (1 Bft)
11.03.2021 22:25 8,0 C 6,9 C 7,0 C 8,0 C 7,9 C 0,0 C 77 % 88 % 1003,4 hPa 0,0 l/m 2,7 km/h (1 Bft) SW 225 0 min 4,2 C 7,9 C 8,0 km/h (2 Bft)
11.03.2021 22:30 8,0 C 6,9 C 7,1 C 8,0 C 7,9 C 0,0 C 77 % 87 % 1003,9 hPa 0,0 l/m 2,4 km/h (1 Bft) S 180 0 min 4,2 C 7,9 C 3,5 km/h (1 Bft)
11.03.2021 22:35 8,1 C 6,9 C 7,1 C 8,1 C 8,0 C 0,0 C 77 % 87 % 1003,9 hPa 0,0 l/m 3,7 km/h (1 Bft) S 180 0 min 4,3 C 8,0 C 7,4 km/h (2 Bft)
11.03.2021 22:40 8,2 C 6,9 C 7,3 C 8,1 C 7,8 C 0,0 C 77 % 87 % 1003,9 hPa 0,0 l/m 4,7 km/h (1 Bft) S 180 0 min 4,4 C 7,4 C 9,7 km/h (2 Bft)
11.03.2021 22:45 8,2 C 6,9 C 7,3 C 8,2 C 8,2 C 0,0 C 77 % 86 % 1003,9 hPa 0,0 l/m 3,5 km/h (1 Bft) S-SO 157 0 min 4,4 C 8,2 C 2,9 km/h (1 Bft)
11.03.2021 22:50 8,3 C 6,9 C 7,3 C 8,3 C 8,2 C 0,0 C 77 % 86 % 1003,4 hPa 0,0 l/m 2,4 km/h (1 Bft) O-NO 67 0 min 4,5 C 8,2 C 4,3 km/h (1 Bft)
11.03.2021 22:55 8,3 C 6,9 C 7,3 C 8,2 C 8,1 C 0,0 C 77 % 85 % 1003,4 hPa 0,0 l/m 1,4 km/h (1 Bft) W-SW 247 0 min 4,5 C 8,1 C 2,1 km/h (1 Bft)
11.03.2021 23:00 8,3 C 6,9 C 7,4 C 8,2 C 8,0 C 0,0 C 77 % 85 % 1003,4 hPa 0,0 l/m 1,6 km/h (1 Bft) W 270 0 min 4,5 C 8,0 C 4,2 km/h (1 Bft)
11.03.2021 23:05 8,3 C 6,9 C 7,4 C 8,2 C 8,1 C 0,0 C 77 % 84 % 1003,4 hPa 0,0 l/m 2,1 km/h (1 Bft) SO 135 0 min 4,5 C 8,1 C 8,7 km/h (2 Bft)
11.03.2021 23:10 8,2 C 6,9 C 7,5 C 8,2 C 8,1 C 0,0 C 77 % 84 % 1004,2 hPa 0,0 l/m 1,6 km/h (1 Bft) W-SW 247 0 min 4,4 C 8,1 C 1,9 km/h (1 Bft)
11.03.2021 23:15 8,3 C 6,9 C 7,5 C 8,2 C 8,1 C 0,0 C 77 % 84 % 1004,2 hPa 0,0 l/m 1,1 km/h (1 Bft) SO 135 0 min 4,5 C 8,1 C 5,0 km/h (1 Bft)
11.03.2021 23:20 8,3 C 6,9 C 7,3 C 8,2 C 7,9 C 0,0 C 77 % 84 % 1004,2 hPa 0,0 l/m 0,6 km/h (0 Bft) SW 225 0 min 4,5 C 7,9 C 0,0 km/h (0 Bft)
11.03.2021 23:25 8,2 C 6,9 C 7,3 C 8,0 C 7,7 C 0,0 C 77 % 84 % 1004,2 hPa 0,0 l/m 0,6 km/h (0 Bft) SO 135 0 min 4,4 C 7,7 C 0,0 km/h (0 Bft)
11.03.2021 23:30 8,1 C 6,9 C 7,2 C 8,0 C 7,7 C 0,0 C 77 % 83 % 1004,2 hPa 0,0 l/m 0,5 km/h (0 Bft) O-SO 112 0 min 4,3 C 7,7 C 0,0 km/h (0 Bft)
11.03.2021 23:35 8,1 C 6,9 C 7,2 C 7,9 C 7,6 C 0,0 C 77 % 83 % 1004,2 hPa 0,0 l/m 0,6 km/h (0 Bft) O-NO 67 0 min 4,3 C 7,6 C 0,0 km/h (0 Bft)
11.03.2021 23:40 8,1 C 6,9 C 7,2 C 8,0 C 7,7 C 0,0 C 77 % 83 % 1004,2 hPa 0,0 l/m 1,1 km/h (1 Bft) W-SW 247 0 min 4,3 C 7,7 C 5,5 km/h (1 Bft)
11.03.2021 23:45 8,0 C 6,9 C 7,2 C 7,9 C 7,6 C 0,0 C 76 % 83 % 1004,2 hPa 0,0 l/m 1,0 km/h (0 Bft) O-SO 112 0 min 4,0 C 7,6 C 2,7 km/h (1 Bft)
11.03.2021 23:50 8,0 C 6,9 C 7,1 C 7,8 C 7,5 C 0,0 C 77 % 83 % 1004,1 hPa 0,0 l/m 1,4 km/h (1 Bft) S-SO 157 0 min 4,2 C 7,5 C 6,1 km/h (2 Bft)
11.03.2021 23:55 8,0 C 6,9 C 7,1 C 7,8 C 7,4 C 0,0 C 76 % 83 % 1004,1 hPa 0,0 l/m 4,0 km/h (1 Bft) W-SW 247 0 min 4,0 C 7,4 C 9,5 km/h (2 Bft)
_ Min-Zeit 00:55 02:45 00:55 00:55 00:55 00:00 17:10 17:10 17:10 - 00:00 - - - 00:40 00:55 00:00
Minimum _ 1,9 C 5,0 C 1,0 C 1,6 C 0,9 C 0,0 C 67 % 70 % 1000,9 hPa - 0,0 km/h (0 Bft) - - - -1,4 C 0,9 C 0,0 km/h (0 Bft)
_ Max-Zeit 16:30 18:00 16:10 16:00 16:00 13:45 18:15 18:50 00:00 18:10 17:50 - - 00:00 16:05 16:00 18:00
Maximum _ 12,9 C 7,1 C 12,3 C 14,2 C 14,2 C 2,4 C 81 % 89 % 1016,6 hPa 0,7 l/m 17,5 km/h
S (3 Bft)
- - 0 min 8,0 C 14,2 C 32,3 km/h
S-SW (5 Bft)
Durchschnitt _ 7,6 C 5,9 C 6,9 C 7,7 C 7,5 C 0,3 C 75 % 81 % 1006,5 hPa #0,7 l/m 3,7 km/h (1 Bft) S - #0 min. 3,4 C 7,3 C 6,7 km/h (2 Bft)
2021 www.wetterstation-wechselburg.de